Hourly Data Report for May 20, 2020

STE-ANNE-DE-BELLEVUE 1
QUEBEC
Current Station Operator: ECCC - MSC

45°25'38.000" N
73°55'45.000" W
39.00 m
702FHL8
71377
WVQ

Download Data

Hourly Data (May 2020)
Hourly Data Report for May 20, 2020
TIME
LST
Temp Definition
°C
Dew Point Definition
°C
Rel Hum Definition
%
Precip. Amount Definition
mm

Wind Dir Definition
10's deg

Wind Spd Definition
km/h
Visibility Definition
km
Stn Press Definition
kPa
Hmdx Definition


Wind Chill Definition


Weather Definition


00:00 11.0 0.7 49 0.0 2 8   102.37     LegendNANA
01:00 10.5 0.3 49 0.0 2 8   102.39     LegendNANA
02:00 9.5 0.4 53 0.0 1 9   102.40     LegendNANA
03:00 9.0 -0.9 50 0.0 2 9   102.40     LegendNANA
04:00 8.0 -0.8 54 0.0 1 8   102.46     LegendNANA
05:00 8.1 -1.1 53 0.0 35 4   102.54     LegendNANA
06:00 10.0 -0.6 48 0.0 2 10   102.58     LegendNANA
07:00 12.2 0.7 45 0.0 3 6   102.63     LegendNANA
08:00 14.0 1.0 41 0.0 11 2   102.66     LegendNANA
09:00 15.9 1.5 38 0.0 33 7   102.65     LegendNANA
10:00 17.5 1.1 33 0.0 35 10   102.63     LegendNANA
11:00 19.7 1.1 29 0.0 27 11   102.59     LegendNANA
12:00 20.4 2.0 29 0.0 35 7   102.53     LegendNANA
13:00 22.2 2.7 28 0.0 22 6   102.45     LegendNANA
14:00 22.7 3.4 28 0.0 32 5   102.38     LegendNANA
15:00 22.6 1.1 24 0.0 14 11   102.30     LegendNANA
16:00 22.9 0.8 23 0.0 13 7   102.23     LegendNANA
17:00 23.0 1.1 24 0.0 14 8   102.16     LegendNANA
18:00 22.4 0.6 23 0.0 14 6   102.12     LegendNANA
19:00 20.9 0.5 26 0.0 13 6   102.11     LegendNANA
20:00 17.7 2.3 36 0.0 15 4   102.12     LegendNANA
21:00 14.1 4.1 51 0.0 20 2   102.15     LegendNANA
22:00 12.8 4.4 56 0.0 21 2   102.08     LegendNANA
23:00 11.7 3.9 59 0.0 33 3   102.09     LegendNANA

Notes on Data Quality.

Legend

  • E = Estimated
  • M = Missing
  • NA = Not Available*
  • [empty] = Indicates an unobserved value
Date modified: